Weather in Honiara

Solomon Islands     9°26′17″S   159°57′42″E
temp.,
°C
wind,
m/s
gust,
m/s
humid.,
%
clouds,
%
prec.,
mm/h
press.,
hPa
HPBL,
m
17 june, thu
thu1723:00+22s11875 0.0 101487
02:00+22sse2285100 0.0 101373
05:00+21sse118575 0.0 101354
08:00+24se12805 0.0 1014121
11:00+29ene23575 0.0 10131179
14:00+29nne335771 0.0 10101330
17:00+25ne028669 1.4 1011115
20:00+23ssw22916 0.5 101394
18 june, fri
fri1823:00+22s11915 0.5 101358
02:00+22ssw11915 0.0 101164
05:00+21s11894 0.0 101151
08:00+24s11815 0.0 101386
11:00+29n12576 0.0 10121070
14:00+28n226546 0.1 1009950
17:00+25nw018235 1.1 1010348
20:00+23sw1189100 0.1 101197
19 june, sat
sat1923:00+23sse1188100 0.1 101254
02:00+23sse1190100 0.0 101071
05:00+23s1188100 0.1 101168
08:00+24sse1185100 0.4 101292
11:00+27ene2371100 1.2 1012620
14:00+28ene336396 1.9 10091118
17:00+25ene238373 5.1 1010172
20:00+23sse129199 1.8 101290
20 june, sun
sun2023:00+22s1190100 2.6 101370
02:00+22sse118899 0.9 101279
05:00+22sse118873 0.9 101277
08:00+23se118497 0.0 1013114
11:00+26nne117664 2.6 1013547
14:00+27n217018 2.1 1011841
17:00+25n118626 4.6 1011190
20:00+23se119013 0.5 101487
21 june, mon
mon2123:00+22s11916 0.6 101568
02:00+21s1191100 0.0 101358
05:00+21sse1190100 0.0 101351
08:00+22sse1185100 0.0 101584
11:00+27ne226267 0.0 1014916
14:00+28nne326221 0.1 10121200
17:00+25ne127976 0.6 1012391
20:00+23ese12909 0.1 1014190